Hourly Data Report for April 23, 2020

CLYDE RIVER A
NUNAVUT
Current Station Operator: NAVCAN

70°29'09.000" N
68°31'01.000" W
26.50 m
2400804
71090
YCY

Download Data

Hourly Data (April 2020)
Hourly Data Report for April 23, 2020
TIME
LST
Temp Definition
°C
Dew Point Definition
°C
Rel Hum Definition
%
Precip. Amount Definition
mm

Wind Dir Definition
10's deg

Wind Spd Definition
km/h
Visibility Definition
km
Stn Press Definition
kPa
Hmdx Definition


Wind Chill Definition


Weather Definition


00:00 -15.7 -18.3 81 0.0 24 9 16.1 101.15   -22 LegendNANA
01:00 -15.9 -19.4 75 0.0 26 5 16.1 101.17   -20 LegendNANA
02:00 -16.2 -19.5 76 0.0 27 13 16.1 101.20   -24 LegendNANA
03:00 -16.5 -19.5 78 0.0 28 9 16.1 101.26   -23 LegendNANA
04:00 -16.3 -18.4 84 0.0 28 9 16.1 101.31   -22 LegendNANA
05:00 -16.5 -19.3 79 0.0 28 11 16.1 101.36   -23 LegendNANA
06:00 -16.3 -19.1 79 0.0 26 8 16.1 101.43   -22 LegendNANA
07:00 -15.8 -18.3 81 0.0 26 4 16.1 101.50   -19 LegendNANA
08:00 -15.5 -18.2 80 0.0   0 16.1 101.59     LegendNANA
09:00 -14.2 -17.1 79 0.0   0 16.1 101.63     LegendNANA
10:00 -13.4 -16.8 76 0.0 24 8 16.1 101.71   -18 LegendNANA
11:00 -12.4 -16.3 73 0.0 LegendMM 4 16.1 101.77   -15 LegendNANA
12:00 -12.1 -15.3 78 0.0 LegendMM 4 16.1 101.83   -15 LegendNANA
13:00 -12.1 -15.1 79 0.0 14 4 16.1 101.91   -15 LegendNANA
14:00 -11.9 -14.8 79 0.0 10 5 16.1 101.99   -15 LegendNANA
15:00 -11.9 -14.5 81 0.0 6 4 16.1 102.09   -14 LegendNANA
16:00 -12.1 -14.6 82 0.0 5 4 16.1 102.18   -15 LegendNANA
17:00 -12.8 -15.0 84 0.0 5 5 16.1 102.26   -16 LegendNANA
18:00 -15.2 -16.9 87 0.0 36 4 16.1 102.33   -18 LegendNANA
19:00 -15.9 -17.5 88 0.0 32 8 16.1 102.36   -21 LegendNANA
20:00 -16.9 -18.5 88 0.0 33 8 16.1 102.41   -23 LegendNANA
21:00 -16.6 -17.7 91 0.0 1 11 16.1 102.42   -24 LegendNANA
22:00 -17.4 -18.9 88 0.0 32 9 16.1 102.46   -24 LegendNANA
23:00 -16.1 -17.5 89 0.0 29 8 16.1 102.41   -22 LegendNANA

Notes on Data Quality.

Legend

  • E = Estimated
  • M = Missing
  • NA = Not Available*
  • [empty] = Indicates an unobserved value
Date modified: